EA3CD Weather Reports


time (UTC)temp
F
wind
direction
speed
knots
gust
knots
rain 1hr
in
rain 24hr
in
rain mn
in
humidity
%
barometer
mb
20260506185103 66 154 0.9 1.7 0.00 0.00 0.00 61 1007.5
20260506184803 66 140 0.0 1.7 0.00 0.00 0.00 60 1007.5
20260506184203 67 148 0.9 1.7 0.00 0.00 0.00 58 1007.5
20260506183903 68 149 1.7 1.7 0.00 0.00 0.00 57 1007.5
20260506183604 68 149 0.0 1.7 0.00 0.00 0.00 57 1007.5
20260506183304 68 157 0.9 2.6 0.00 0.00 0.00 57 1007.5
20260506183003 68 148 1.7 3.5 0.00 0.00 0.00 57 1007.5
20260506182703 68 133 0.9 3.5 0.00 0.00 0.00 58 1007.5
20260506182404 68 132 2.6 5.2 0.00 0.00 0.00 58 1007.5
20260506182103 68 128 3.5 5.2 0.00 0.00 0.00 58 1007.5
20260506181804 68 134 0.9 5.2 0.00 0.04 0.00 58 1006.5
20260506181504 68 132 4.3 5.2 0.00 0.04 0.00 57 1006.5
20260506181203 68 118 2.6 5.2 0.00 0.04 0.00 56 1006.5
20260506180904 69 115 2.6 5.2 0.00 0.04 0.00 53 1006.5
20260506180603 69 112 2.6 5.2 0.00 0.04 0.00 52 1006.5
20260506180303 69 118 5.2 5.2 0.00 0.04 0.00 51 1006.5
20260506180004 69 125 2.6 5.2 0.00 0.04 0.00 51 1006.5
20260506175704 69 131 5.2 5.2 0.00 0.04 0.00 51 1006.5
20260506175403 69 136 5.2 5.2 0.00 0.04 0.00 51 1006.5
20260506175103 70 140 2.6 5.2 0.00 0.04 0.00 50 1006.5
20260506174803 70 140 3.5 5.2 0.00 0.04 0.00 49 1006.5
20260506174503 70 132 5.2 5.2 0.00 0.04 0.00 46 1006.5
20260506174204 70 132 3.5 5.2 0.00 0.04 0.00 45 1006.5
20260506173903 71 131 4.3 7.0 0.00 0.04 0.00 45 1006.5
20260506173603 71 140 4.3 7.0 0.00 0.04 0.00 45 1006.5
20260506173304 70 141 0.0 7.0 0.00 0.04 0.00 45 1006.5
20260506173003 70 135 2.6 7.0 0.00 0.04 0.00 45 1006.5
20260506172103 73 104 2.6 5.2 0.00 0.04 0.00 41 1006.5
20260506171803 72 112 0.9 5.2 0.00 0.04 0.00 41 1006.5
20260506171503 72 150 0.0 5.2 0.00 0.09 0.00 42 1006.5
20260506171204 71 140 5.2 5.2 0.00 0.09 0.00 42 1006.5
20260506170904 71 148 2.6 2.6 0.00 0.09 0.00 42 1006.5
20260506170303 72 135 2.6 2.6 0.00 0.09 0.00 41 1006.5
20260506165703 71 135 2.6 2.6 0.00 0.09 0.00 41 1006.5
20260506165403 71 135 2.6 2.6 0.00 0.09 0.00 41 1006.5
20260506165103 71 135 2.6 2.6 0.00 0.09 0.00 41 1006.5
20260506164804 71 135 2.6 2.6 0.00 0.09 0.00 42 1006.5
20260506164504 71 135 2.6 2.6 0.00 0.09 0.00 42 1006.5
20260506164203 70 135 2.6 2.6 0.00 0.09 0.00 42 1006.5
20260506163903 71 135 2.6 2.6 0.00 0.09 0.00 42 1006.5
20260506163603 71 135 2.6 2.6 0.00 0.09 0.00 42 1006.5
20260506163303 70 135 2.6 2.6 0.00 0.09 0.00 43 1006.5
20260506163003 71 135 2.6 2.6 0.00 0.09 0.00 44 1006.5
20260506162702 71 135 2.6 2.6 0.00 0.09 0.00 42 1006.5
20260506162403 71 135 2.6 2.6 0.00 0.09 0.00 43 1006.5
20260506162103 71 135 2.6 2.6 0.00 0.09 0.00 44 1006.5
20260506161803 71 135 2.6 2.6 0.00 0.09 0.00 43 1006.5
20260506161503 72 135 2.6 2.6 0.00 0.09 0.00 42 1006.5
20260506161203 72 135 2.6 2.6 0.00 0.09 0.00 41 1006.5
20260506160604 73 121 2.6 5.2 0.00 0.09 0.00 41 1006.5
20260506160303 73 104 2.6 5.2 0.00 0.09 0.00 39 1006.5
20260506160003 73 93 1.7 5.2 0.00 0.09 0.00 36 1006.5
20260506154503 74 90 5.2 5.2 0.00 0.09 0.00 33 1006.5
20260506154203 73 90 5.2 5.2 0.00 0.09 0.00 33 1006.5
20260506153903 74 99 5.2 5.2 0.00 0.09 0.00 32 1006.5
20260506153603 74 140 5.2 7.8 0.00 0.09 0.00 33 1006.5
20260506152403 73 157 5.2 5.2 0.00 0.09 0.00 32 1006.5
20260506152103 73 167 4.3 7.8 0.00 0.09 0.00 32 1006.5
20260506151803 72 157 5.2 8.7 0.00 0.09 0.00 33 1006.5
20260506151503 72 158 4.3 8.7 0.00 0.09 0.00 33 1006.5
20260506151204 72 153 1.7 8.7 0.00 0.09 0.00 32 1006.5
20260506150903 73 144 8.7 8.7 0.00 0.09 0.00 31 1006.5
20260506150604 74 164 2.6 7.0 0.00 0.09 0.00 32 1006.5
20260506150305 73 189 1.7 7.0 0.00 0.09 0.00 33 1006.5
20260506150003 73 191 7.0 7.0 0.00 0.09 0.00 32 1006.5
20260506145703 73 174 3.5 6.1 0.00 0.09 0.00 33 1006.5
20260506145403 73 152 4.3 6.1 0.00 0.09 0.00 33 1007.5
20260506145103 73 154 2.6 6.1 0.00 0.09 0.00 33 1007.5
20260506144803 73 182 2.6 6.1 0.00 0.09 0.00 32 1007.5
20260506144504 74 188 5.2 6.1 0.00 0.09 0.00 32 1007.5
20260506144203 73 189 3.5 6.1 0.00 0.09 0.00 33 1007.5
20260506143903 73 183 3.5 5.2 0.00 0.09 0.00 33 1007.5
20260506143303 72 188 2.6 5.2 0.00 0.09 0.00 33 1007.5
20260506143003 72 193 5.2 5.2 0.00 0.09 0.00 33 1007.5
20260506142702 72 202 1.7 3.5 0.00 0.09 0.00 34 1007.5
20260506142403 72 184 3.5 7.8 0.00 0.09 0.00 34 1007.5
20260506142103 72 168 2.6 7.8 0.00 0.09 0.00 33 1007.5
20260506141803 72 161 0.9 9.6 0.00 0.09 0.00 33 1007.5
20260506141503 72 161 3.5 9.6 0.00 0.09 0.00 33 1007.5
20260506141203 73 182 6.1 9.6 0.00 0.09 0.00 32 1007.5
20260506140603 74 204 2.6 5.2 0.00 0.09 0.00 32 1007.5
20260506140303 72 202 5.2 5.2 0.00 0.09 0.00 31 1007.5
20260506140004 72 182 1.7 5.2 0.00 0.09 0.00 32 1007.5
20260506135703 72 172 3.5 9.6 0.00 0.09 0.00 32 1007.5
20260506135403 72 167 2.6 9.6 0.00 0.09 0.00 32 1007.5
20260506135103 71 171 1.7 9.6 0.00 0.09 0.00 32 1007.5
20260506134503 72 178 2.6 4.3 0.00 0.09 0.00 32 1007.5
20260506134203 72 192 1.7 3.5 0.00 0.09 0.00 32 1007.5
20260506133903 72 195 3.5 3.5 0.00 0.09 0.00 30 1007.5
20260506133603 73 202 3.5 5.2 0.00 0.09 0.00 31 1007.5
20260506133303 72 199 2.6 5.2 0.00 0.09 0.00 30 1007.5
20260506133003 72 174 1.7 8.7 0.00 0.09 0.00 31 1007.5
20260506132702 72 170 0.9 8.7 0.00 0.09 0.00 31 1007.5
20260506132403 72 169 4.3 8.7 0.00 0.09 0.00 31 1007.5
20260506132104 73 170 8.7 8.7 0.00 0.09 0.00 31 1007.5
20260506131803 72 170 0.9 5.2 0.00 0.09 0.00 32 1007.5
20260506131504 72 179 0.9 5.2 0.00 0.09 0.00 32 1007.5
20260506131203 72 179 2.6 3.5 0.00 0.09 0.00 35 1007.5
20260506130903 71 189 3.5 4.3 0.00 0.09 0.00 36 1008.5
20260506130603 71 192 3.5 5.2 0.00 0.09 0.00 36 1008.5
20260506130303 71 196 2.6 7.0 0.00 0.09 0.00 35 1008.5
20260506130004 71 191 3.5 7.0 0.00 0.09 0.00 35 1008.5
20260506125704 71 193 1.7 7.0 0.00 0.09 0.00 38 1008.5
20260506125403 71 189 5.2 7.0 0.00 0.09 0.00 37 1008.5
20260506125104 71 196 3.5 7.0 0.00 0.09 0.00 37 1008.5
20260506124502 71 202 4.3 5.2 0.00 0.09 0.00 37 1008.5
20260506124203 71 199 5.2 5.2 0.00 0.09 0.00 37 1008.5
20260506123904 71 200 5.2 5.2 0.00 0.09 0.00 36 1008.5
20260506123603 71 197 3.5 5.2 0.00 0.09 0.00 37 1008.5
20260506123002 71 206 3.5 6.1 0.00 0.09 0.00 38 1008.5
20260506122703 71 200 5.2 6.1 0.00 0.09 0.00 37 1008.5
20260506122403 70 196 3.5 5.2 0.00 0.09 0.00 39 1008.5
20260506122103 70 198 1.7 5.2 0.00 0.09 0.00 38 1008.5
20260506121803 70 204 2.6 5.2 0.00 0.09 0.00 36 1008.5
20260506121504 70 206 3.5 6.1 0.00 0.09 0.00 37 1008.5
20260506121203 70 209 4.3 6.1 0.00 0.09 0.00 37 1008.5
20260506120602 70 215 6.1 7.0 0.00 0.09 0.00 37 1008.5
20260506120004 71 207 5.2 7.0 0.00 0.09 0.00 35 1008.5
20260506115403 71 198 4.3 8.7 0.00 0.09 0.00 33 1008.5
20260506115103 71 195 2.6 8.7 0.00 0.09 0.00 33 1008.5
20260506114802 70 199 3.5 8.7 0.00 0.09 0.00 34 1008.5
20260506114502 70 204 3.5 5.2 0.00 0.09 0.00 34 1008.5
20260506114203 70 196 3.5 8.7 0.00 0.09 0.00 34 1008.5
20260506113904 70 200 4.3 8.7 0.00 0.09 0.00 34 1008.5
20260506113603 70 204 2.6 8.7 0.00 0.09 0.00 34 1008.5
20260506113302 70 191 3.5 6.1 0.00 0.09 0.00 35 1008.5
20260506113003 70 178 2.6 6.1 0.00 0.09 0.00 36 1008.5
20260506112703 69 179 3.5 6.1 0.00 0.09 0.00 38 1008.5
20260506112103 70 209 1.7 6.1 0.00 0.09 0.00 41 1008.5
20260506111802 70 224 2.6 6.1 0.00 0.09 0.00 42 1008.5
20260506111502 69 217 2.6 6.1 0.00 0.09 0.00 42 1008.5
20260506111203 70 220 6.1 6.1 0.00 0.09 0.00 40 1008.5
20260506110903 70 185 1.7 5.2 0.00 0.09 0.00 40 1008.5
20260506110602 70 177 5.2 5.2 0.00 0.09 0.00 39 1008.5
20260506110303 70 168 1.7 5.2 0.00 0.09 0.00 38 1008.5
20260506110003 70 166 2.6 4.3 0.00 0.09 0.00 38 1008.5
20260506105703 69 179 1.7 4.3 0.00 0.09 0.00 38 1008.5
20260506105102 69 190 1.7 7.0 0.00 0.09 0.00 38 1008.5
20260506104803 70 190 3.5 7.0 0.00 0.09 0.00 37 1008.5
20260506104504 69 173 3.5 7.0 0.00 0.09 0.00 37 1008.5
20260506104203 70 182 4.3 5.2 0.00 0.09 0.00 38 1008.5
20260506103903 69 182 1.7 5.2 0.00 0.09 0.00 41 1008.5
20260506103603 69 207 5.2 5.2 0.00 0.09 0.00 40 1008.5
20260506103003 70 176 1.7 7.0 0.00 0.09 0.00 39 1008.5
20260506102702 71 169 1.7 7.0 0.00 0.09 0.00 36 1008.5
20260506102403 72 156 7.0 7.0 0.00 0.09 0.00 37 1008.5
20260506102102 72 158 2.6 5.2 0.00 0.09 0.00 36 1008.5
20260506101804 72 141 0.9 5.2 0.00 0.09 0.00 36 1008.5
20260506101203 72 149 0.9 3.5 0.00 0.09 0.00 37 1008.5
20260506100903 71 137 2.6 4.3 0.00 0.09 0.00 37 1008.5
20260506100602 71 143 1.7 4.3 0.00 0.09 0.00 38 1008.5
20260506100002 70 125 2.6 5.2 0.00 0.09 0.00 38 1008.5
20260506095402 69 121 1.7 5.2 0.00 0.09 0.00 42 1008.5
20260506095103 69 126 3.5 9.6 0.00 0.09 0.00 41 1008.5
20260506094803 69 137 1.7 9.6 0.00 0.09 0.00 42 1008.5
20260506094502 69 133 5.2 9.6 0.00 0.09 0.00 41 1009.5
20260506094203 70 138 9.6 9.6 0.00 0.09 0.00 36 1009.5
20260506093903 71 144 2.6 6.1 0.00 0.09 0.00 34 1009.5
20260506093602 71 158 3.5 4.3 0.00 0.09 0.00 35 1009.5
20260506093302 72 171 1.7 4.3 0.00 0.09 0.00 35 1009.5
20260506093003 71 146 0.9 4.3 0.00 0.09 0.00 36 1009.5
20260506092702 71 152 4.3 4.3 0.00 0.09 0.00 37 1009.5
20260506092403 70 149 0.9 6.1 0.00 0.09 0.00 36 1009.5
20260506092103 69 154 3.5 6.1 0.00 0.09 0.00 36 1009.5
20260506091802 69 134 2.6 6.1 0.00 0.09 0.00 37 1009.5
20260506091503 69 130 6.1 6.1 0.00 0.09 0.00 37 1008.5
20260506091203 69 124 1.7 6.1 0.00 0.09 0.00 37 1008.5
20260506090903 69 138 5.2 6.1 0.00 0.09 0.00 39 1008.5
20260506090603 69 145 3.5 6.1 0.00 0.09 0.00 39 1008.5
20260506090303 69 152 5.2 5.2 0.00 0.09 0.00 39 1008.5
20260506085402 68 138 5.2 8.7 0.00 0.09 0.00 39 1008.5
20260506085103 68 143 1.7 8.7 0.00 0.09 0.00 43 1008.5
20260506084803 68 142 3.5 8.7 0.00 0.09 0.00 42 1008.5
20260506084503 68 148 8.7 8.7 0.00 0.09 0.00 43 1008.5
20260506084204 68 140 3.5 7.8 0.00 0.09 0.00 41 1008.5
20260506083603 68 130 7.0 7.8 0.00 0.09 0.00 40 1008.5
20260506083302 69 130 2.6 6.1 0.00 0.09 0.00 40 1008.5
20260506083003 70 143 6.1 6.1 0.00 0.09 0.00 41 1008.5
20260506082702 69 146 1.7 3.5 0.00 0.09 0.00 40 1008.5
20260506082403 70 125 1.7 3.5 0.00 0.09 0.00 43 1008.5
20260506081503 68 47 1.7 3.5 0.00 0.09 0.00 44 1008.5
20260506081203 68 17 2.6 3.5 0.00 0.09 0.00 46 1008.5
20260506080603 67 28 2.6 3.5 0.00 0.09 0.00 47 1008.5
20260506080302 67 57 1.7 5.2 0.00 0.13 0.00 48 1008.5
20260506073303 64 23 3.5 5.2 0.00 0.13 0.00 72 1008.5
20260506073002 63 21 3.5 7.8 0.00 0.13 0.00 71 1008.5
20260506072402 63 17 3.5 7.8 0.00 0.13 0.00 73 1008.5
20260506072103 63 16 7.8 7.8 0.00 0.13 0.00 76 1008.5
20260506071803 63 21 5.2 6.1 0.00 0.13 0.00 75 1008.5
20260506071203 62 30 6.1 6.1 0.00 0.13 0.00 78 1007.5
20260506070902 62 30 1.7 5.2 0.00 0.13 0.00 79 1007.5
20260506070603 61 35 4.3 6.1 0.00 0.13 0.00 78 1007.5
20260506070303 61 34 3.5 7.0 0.00 0.13 0.00 80 1007.5
20260506062403 61 348 7.8 7.8 0.00 0.13 0.00 88 1007.5
20260506062103 61 47 0.9 2.6 0.00 0.13 0.00 90 1007.5
20260506061803 61 62 1.7 2.6 0.00 0.13 0.00 89 1007.5
20260506061503 61 71 1.7 2.6 0.00 0.13 0.00 90 1007.5
20260506061203 60 64 2.6 2.6 0.00 0.13 0.00 92 1007.5
20260506060902 60 50 1.7 2.6 0.00 0.13 0.00 92 1007.5
20260506060603 60 34 1.7 1.7 0.00 0.13 0.00 93 1007.5
20260506060302 59 25 0.9 2.6 0.00 0.13 0.00 94 1007.5
20260506051203 52 6 1.7 1.7 0.00 0.13 0.00 98 1007.5
20260506050303 51 347 1.7 2.6 0.00 0.13 0.00 98 1007.5
20260506045103 50 357 1.7 2.6 0.00 0.13 0.00 98 1007.5
20260506044802 50 5 1.7 1.7 0.00 0.13 0.00 98 1007.5
20260506044503 50 18 1.7 1.7 0.00 0.13 0.00 98 1007.5
20260506044202 50 29 0.9 1.7 0.00 0.13 0.00 98 1007.5
20260506043903 50 44 0.0 1.7 0.00 0.13 0.00 98 1007.5
20260506043603 50 74 0.0 1.7 0.00 0.13 0.00 98 1007.5
20260506043303 50 67 0.0 1.7 0.00 0.13 0.00 98 1007.5
20260506042703 50 67 1.7 1.7 0.00 0.13 0.00 98 1007.5
20260506042102 50 12 0.0 2.6 0.00 0.13 0.00 98 1007.5
20260506041502 51 14 1.7 2.6 0.00 0.13 0.00 98 1007.5
20260506041202 51 21 1.7 1.7 0.00 0.13 0.00 98 1007.5
20260506040903 51 26 1.7 1.7 0.00 0.13 0.00 98 1007.5
20260506040603 51 35 0.0 1.7 0.00 0.13 0.00 98 1007.5
20260506040303 51 12 0.0 1.7 0.00 0.13 0.00 98 1007.5
20260506040003 51 350 0.9 2.6 0.00 0.13 0.00 98 1006.5
20260506035703 51 343 1.7 2.6 0.00 0.13 0.00 98 1006.5
20260506035403 51 334 1.7 2.6 0.00 0.13 0.00 98 1006.5
20260506035103 51 317 1.7 1.7 0.00 0.13 0.00 98 1006.5
20260506033603 51 317 1.7 2.6 0.00 0.13 0.00 98 1006.5
20260506033302 51 322 0.9 2.6 0.00 0.13 0.00 98 1006.5
20260506033002 51 333 2.6 2.6 0.00 0.13 0.00 98 1006.5
20260506032703 51 349 1.7 1.7 0.00 0.13 0.00 98 1006.5
20260506032404 51 356 1.7 1.7 0.00 0.13 0.00 98 1006.5
20260506032103 52 356 1.7 1.7 0.00 0.13 0.00 98 1006.5
20260506031802 52 351 1.7 2.6 0.00 0.13 0.00 98 1006.5
20260506031503 52 341 1.7 2.6 0.00 0.13 0.00 98 1006.5
20260506031203 52 326 1.7 2.6 0.00 0.13 0.00 98 1006.5
20260506030903 52 306 1.7 1.7 0.00 0.13 0.00 98 1006.5
20260506030603 52 312 0.9 1.7 0.00 0.13 0.00 98 1006.5
20260506030003 51 307 0.9 1.7 0.00 0.13 0.00 98 1006.5
20260506025403 51 291 1.7 2.6 0.00 0.13 0.00 98 1006.5
20260506025103 51 294 1.7 2.6 0.00 0.13 0.00 98 1006.5
20260506024803 51 299 1.7 2.6 0.00 0.13 0.00 98 1006.5
20260506024503 51 302 2.6 2.6 0.00 0.13 0.00 98 1006.5
20260506023904 51 307 2.6 3.5 0.00 0.13 0.00 98 1006.5
20260506022703 51 357 1.7 1.7 0.00 0.13 0.00 98 1006.5
20260506022403 51 348 0.9 1.7 0.00 0.13 0.00 98 1006.5
20260506022102 51 352 1.7 1.7 0.00 0.13 0.00 98 1006.5
20260506021802 51 1 0.0 1.7 0.00 0.13 0.00 98 1006.5
20260506021502 51 1 1.7 1.7 0.00 0.13 0.00 98 1006.5
20260506021203 51 342 0.0 0.9 0.00 0.13 0.00 98 1006.5
20260506020903 51 335 0.0 2.6 0.00 0.13 0.00 98 1006.5
20260506020603 51 318 0.0 2.6 0.00 0.13 0.00 98 1006.5
20260506020302 52 317 0.9 2.6 0.00 0.13 0.00 98 1006.5
20260506015703 52 310 1.7 1.7 0.00 0.13 0.00 98 1006.5
20260506015402 52 324 1.7 1.7 0.00 0.13 0.00 98 1006.5
20260506015102 51 346 1.7 2.6 0.00 0.13 0.00 98 1006.5
20260506014803 51 359 0.0 2.6 0.00 0.13 0.00 98 1006.5
20260506014502 51 4 1.7 2.6 0.00 0.13 0.00 98 1006.5
20260506014203 52 337 0.0 1.7 0.00 0.13 0.00 98 1006.5
20260506013902 52 343 0.0 1.7 0.00 0.13 0.00 98 1006.5
20260506013602 52 351 0.9 1.7 0.00 0.13 0.00 98 1006.5
20260506013303 52 3 1.7 1.7 0.00 0.13 0.00 98 1006.5
20260506013002 52 37 0.0 0.9 0.00 0.13 0.00 98 1006.5
20260506012703 52 46 0.0 1.7 0.00 0.13 0.00 98 1006.5
20260506012103 53 46 0.0 1.7 0.00 0.13 0.00 98 1006.5
20260506011803 53 46 0.9 1.7 0.00 0.13 0.00 98 1006.5
20260506011502 53 0 0.0 0.0 0.00 0.13 0.00 98 1006.5
20260506011202 53 46 0.0 0.9 0.00 0.13 0.00 98 1006.5
20260506010903 53 46 0.0 1.7 0.00 0.13 0.00 98 1006.5
20260506010303 53 21 0.9 1.7 0.00 0.13 0.00 98 1006.5
20260506010002 53 27 0.0 1.7 0.00 0.13 0.00 98 1006.5
20260506005703 54 29 0.9 1.7 0.00 0.13 0.00 98 1006.5
20260506005402 54 45 0.0 1.7 0.00 0.13 0.00 98 1006.5
20260506005103 54 33 1.7 1.7 0.00 0.13 0.00 98 1006.5
20260506004503 54 355 0.0 2.6 0.00 0.13 0.00 98 1006.5
20260506004203 54 355 0.9 2.6 0.00 0.13 0.00 98 1006.5
20260506003903 54 337 0.9 1.7 0.00 0.13 0.00 98 1006.5
20260506003604 54 337 0.0 1.7 0.00 0.13 0.00 98 1006.5
20260506003003 54 9 0.9 0.9 0.00 0.13 0.00 98 1006.5
20260506002703 54 29 0.0 1.7 0.00 0.13 0.00 98 1006.5
20260506002403 54 28 0.0 1.7 0.00 0.13 0.00 98 1006.5
20260506002103 54 24 0.0 1.7 0.00 0.13 0.00 98 1006.5
20260506001802 54 8 1.7 1.7 0.00 0.13 0.00 98 1006.5
20260506001503 55 340 0.9 1.7 0.00 0.13 0.00 98 1006.5
20260506001202 55 327 1.7 1.7 0.00 0.13 0.00 98 1006.5
20260506000903 55 318 1.7 1.7 0.00 0.13 0.00 98 1006.5
20260506000602 55 314 1.7 1.7 0.00 0.13 0.00 98 1006.5
20260506000303 56 314 0.9 1.7 0.00 0.13 0.00 98 1006.5
20260506000004 56 314 0.0 0.9 0.00 0.13 0.00 98 1006.5
20260505235702 56 314 0.0 1.7 0.00 0.13 0.00 98 1006.5
20260505234802 56 293 1.7 1.7 0.00 0.13 0.00 98 1006.5
20260505234503 56 286 0.9 0.9 0.00 0.13 0.00 98 1006.5
20260505234202 57 296 0.0 1.7 0.00 0.13 0.00 98 1006.5
20260505233902 57 293 0.9 3.5 0.00 0.13 0.00 98 1006.5
20260505233602 57 288 0.9 3.5 0.00 0.13 0.00 98 1006.5
20260505233303 57 283 0.9 3.5 0.00 0.13 0.00 98 1006.5
20260505233002 57 278 3.5 3.5 0.00 0.13 0.00 98 1006.5
20260505232702 57 266 1.7 2.6 0.00 0.13 0.00 98 1006.5
20260505232403 57 259 0.0 2.6 0.00 0.13 0.00 98 1006.5
20260505232102 57 244 2.6 2.6 0.00 0.13 0.00 98 1006.5
20260505231802 57 0 0.0 0.0 0.00 0.13 0.00 98 1006.5
20260505231502 57 0 0.0 0.0 0.00 0.13 0.00 98 1006.5
20260505231203 57 0 0.0 0.0 0.00 0.13 0.00 98 1006.5
20260505230903 58 22 0.0 0.9 0.00 0.13 0.00 98 1006.5
20260505230602 58 32 0.0 2.6 0.00 0.13 0.00 98 1006.5
20260505230303 58 32 0.0 2.6 0.00 0.13 0.00 98 1006.5
20260505230002 58 34 0.0 2.6 0.00 0.13 0.00 98 1006.5
20260505225702 58 46 1.7 1.7 0.00 0.13 0.00 98 1006.5
20260505225403 59 46 0.0 0.9 0.00 0.13 0.00 98 1006.5
20260505225102 59 46 0.0 0.9 0.00 0.13 0.00 98 1006.5
20260505224803 59 46 0.0 0.9 0.00 0.13 0.00 98 1006.5
20260505224502 59 307 0.0 1.7 0.00 0.13 0.00 98 1006.5
20260505224202 60 296 0.0 3.5 0.00 0.13 0.00 98 1006.5
20260505223903 60 294 0.0 3.5 0.00 0.13 0.00 98 1006.5
20260505223602 60 288 1.7 4.3 0.00 0.13 0.00 98 1006.5
20260505223303 60 289 3.5 4.3 0.00 0.13 0.00 98 1006.5
20260505222702 60 295 2.6 4.3 0.00 0.13 0.00 98 1007.5
20260505222102 60 293 4.3 6.1 0.00 0.13 0.00 98 1007.5
20260505221803 60 285 2.6 6.1 0.00 0.13 0.00 98 1007.5
20260505221203 59 290 3.5 6.1 0.00 0.13 0.00 98 1007.5
20260505220903 59 300 3.5 6.1 0.00 0.13 0.00 98 1007.5
20260505220602 59 297 6.1 6.1 0.00 0.13 0.00 98 1007.5
20260505220303 59 296 4.3 4.3 0.00 0.13 0.00 98 1007.5
20260505215404 59 283 2.6 2.6 0.00 0.13 0.13 98 1007.5
20260505215103 59 284 1.7 4.3 0.00 0.13 0.13 98 1007.5
20260505214802 59 287 0.9 4.3 0.00 0.13 0.13 98 1007.5
20260505214503 59 289 2.6 4.3 0.00 0.13 0.13 98 1007.5
20260505214202 59 292 4.3 4.3 0.00 0.13 0.13 98 1007.5
20260505213905 59 290 1.7 2.6 0.00 0.13 0.13 98 1007.5
20260505213602 59 284 1.7 1.7 0.00 0.13 0.13 98 1007.5
20260505213302 59 297 1.7 1.7 0.00 0.13 0.13 98 1007.5
20260505213003 59 314 0.0 1.7 0.00 0.13 0.13 98 1007.5
20260505212702 59 314 0.9 1.7 0.00 0.13 0.13 98 1007.5
20260505212403 59 314 1.7 1.7 0.00 0.13 0.13 98 1007.5
20260505212102 59 314 0.9 0.9 0.00 0.13 0.13 98 1007.5
20260505211802 59 314 0.0 0.9 0.00 0.13 0.13 98 1007.5
20260505211503 59 314 0.0 0.9 0.00 0.13 0.13 98 1007.5
20260505210303 60 286 0.9 3.5 0.00 0.13 0.13 98 1007.5
20260505210002 60 279 0.9 3.5 0.00 0.13 0.13 98 1007.5
20260505205102 60 261 0.0 2.6 0.00 0.13 0.13 98 1007.5
20260505204803 60 263 0.9 2.6 0.00 0.13 0.13 98 1007.5
20260505203903 60 334 0.0 1.7 0.00 0.13 0.13 98 1007.5
20260505203303 60 330 0.9 1.7 0.00 0.13 0.13 98 1007.5
20260505203002 60 335 0.0 1.7 0.00 0.13 0.13 98 1007.5
20260505202702 60 335 0.0 1.7 0.00 0.13 0.13 98 1007.5
20260505202403 60 342 1.7 1.7 0.00 0.13 0.13 98 1007.5
20260505202103 59 353 0.9 1.7 0.00 0.13 0.13 98 1007.5
20260505201203 59 32 0.0 1.7 0.00 0.13 0.13 98 1006.5
20260505200903 59 17 0.0 1.7 0.00 0.13 0.13 98 1006.5
20260505200303 59 321 0.0 1.7 0.00 0.13 0.13 98 1006.5
20260505200002 59 317 0.9 1.7 0.00 0.13 0.13 98 1006.5
20260505195702 59 311 1.7 2.6 0.00 0.13 0.13 98 1006.5
20260505195402 59 306 1.7 2.6 0.00 0.13 0.13 98 1006.5
20260505195103 59 298 1.7 2.6 0.00 0.13 0.13 98 1006.5
20260505194802 59 296 1.7 2.6 0.00 0.13 0.13 98 1006.5
20260505194503 59 285 1.7 3.5 0.00 0.13 0.13 98 1006.5
20260505194202 59 285 2.6 3.5 0.00 0.13 0.13 98 1006.5
20260505193902 59 282 2.6 3.5 0.00 0.13 0.13 98 1006.5
20260505193603 59 277 1.7 2.6 0.00 0.13 0.13 98 1006.5
20260505193303 59 229 0.0 0.9 0.00 0.13 0.13 98 1006.5
20260505192703 59 223 0.0 2.6 0.00 0.13 0.13 98 1006.5
20260505192102 60 257 2.6 2.6 0.00 0.13 0.13 98 1006.5
20260505191803 60 287 0.0 2.6 0.04 0.13 0.13 98 1006.5
20260505191503 59 301 0.9 2.6 0.04 0.17 0.13 98 1005.5
20260505191203 59 312 0.0 2.6 0.04 0.17 0.13 98 1005.5
20260505190902 59 316 0.0 2.6 0.04 0.17 0.13 98 1005.5
20260505190602 59 296 0.0 3.5 0.04 0.17 0.13 98 1005.5
20260505190303 59 295 1.7 3.5 0.04 0.17 0.13 98 1005.5
20260505190004 59 281 2.6 4.3 0.04 0.17 0.13 98 1005.5
20260505185702 59 282 3.5 4.3 0.04 0.17 0.13 98 1005.5
20260505185402 59 284 3.5 4.3 0.04 0.17 0.13 98 1005.5